Wetterdaten: Donnerstag, 01.08.2013
Datum Zeit Temperatur Luftfeuchte Luftdruck Regen Wind Richtung Richtung Taupunkt Windchill Windben
01.08.2013 00:00 13,8 C 82 % 1024,2 hPa 0,0 l/m 0,0 km/h (0 Bft) S 180 10,8 C 13,4 C 0,0 km/h (0 Bft)
01.08.2013 00:05 13,7 C 83 % 1024,2 hPa 0,0 l/m 0,0 km/h (0 Bft) O 90 10,9 C 13,2 C 0,0 km/h (0 Bft)
01.08.2013 00:10 13,6 C 83 % 1024,2 hPa 0,0 l/m 0,0 km/h (0 Bft) S 180 10,8 C 13,1 C 0,0 km/h (0 Bft)
01.08.2013 00:15 13,4 C 83 % 1024,2 hPa 0,0 l/m 0,0 km/h (0 Bft) O-SO 112 10,6 C 13,0 C 0,0 km/h (0 Bft)
01.08.2013 00:20 13,3 C 83 % 1024,1 hPa 0,0 l/m 0,0 km/h (0 Bft) O 90 10,5 C 12,9 C 0,0 km/h (0 Bft)
01.08.2013 00:25 13,5 C 83 % 1024,1 hPa 0,0 l/m 0,0 km/h (0 Bft) S 180 10,7 C 12,9 C 0,0 km/h (0 Bft)
01.08.2013 00:30 13,4 C 83 % 1024,1 hPa 0,0 l/m 0,0 km/h (0 Bft) SO 135 10,6 C 12,9 C 0,0 km/h (0 Bft)
01.08.2013 00:35 13,2 C 83 % 1024,1 hPa 0,0 l/m 0,0 km/h (0 Bft) SO 135 10,4 C 12,8 C 0,0 km/h (0 Bft)
01.08.2013 00:40 13,1 C 84 % 1024,0 hPa 0,0 l/m 0,0 km/h (0 Bft) W-SW 247 10,5 C 12,7 C 0,0 km/h (0 Bft)
01.08.2013 00:45 12,8 C 84 % 1024,0 hPa 0,0 l/m 0,0 km/h (0 Bft) W-SW 247 10,2 C 12,5 C 0,0 km/h (0 Bft)
01.08.2013 00:50 12,7 C 85 % 1024,0 hPa 0,0 l/m 0,0 km/h (0 Bft) W-NW 292 10,2 C 12,4 C 0,0 km/h (0 Bft)
01.08.2013 00:55 12,8 C 85 % 1024,0 hPa 0,0 l/m 0,0 km/h (0 Bft) NW 315 10,3 C 12,2 C 0,0 km/h (0 Bft)
01.08.2013 01:00 12,8 C 85 % 1023,9 hPa 0,0 l/m 0,0 km/h (0 Bft) N-NW 337 10,3 C 12,2 C 0,0 km/h (0 Bft)
01.08.2013 01:05 12,6 C 85 % 1023,9 hPa 0,0 l/m 0,0 km/h (0 Bft) W-SW 247 10,1 C 12,2 C 0,0 km/h (0 Bft)
01.08.2013 01:10 12,6 C 85 % 1023,9 hPa 0,0 l/m 0,0 km/h (0 Bft) W-SW 247 10,1 C 12,1 C 0,0 km/h (0 Bft)
01.08.2013 01:15 12,6 C 86 % 1023,9 hPa 0,0 l/m 0,0 km/h (0 Bft) W 270 10,3 C 12,1 C 0,0 km/h (0 Bft)
01.08.2013 01:20 12,5 C 86 % 1023,6 hPa 0,0 l/m 0,0 km/h (0 Bft) S-SW 202 10,2 C 12,1 C 0,0 km/h (0 Bft)
01.08.2013 01:25 12,6 C 86 % 1023,6 hPa 0,0 l/m 0,0 km/h (0 Bft) W-SW 247 10,3 C 12,1 C 0,0 km/h (0 Bft)
01.08.2013 01:30 12,5 C 86 % 1023,6 hPa 0,0 l/m 0,0 km/h (0 Bft) N 360 10,2 C 11,9 C 0,0 km/h (0 Bft)
01.08.2013 01:35 12,7 C 86 % 1023,6 hPa 0,0 l/m 0,0 km/h (0 Bft) NO 45 10,4 C 11,9 C 0,0 km/h (0 Bft)
01.08.2013 01:40 12,6 C 86 % 1023,6 hPa 0,0 l/m 0,0 km/h (0 Bft) O-SO 112 10,3 C 12,0 C 0,0 km/h (0 Bft)
01.08.2013 01:45 12,5 C 86 % 1023,6 hPa 0,0 l/m 0,0 km/h (0 Bft) O-SO 112 10,2 C 12,0 C 0,0 km/h (0 Bft)
01.08.2013 01:50 12,4 C 86 % 1023,6 hPa 0,0 l/m 0,0 km/h (0 Bft) O-SO 112 10,1 C 12,0 C 0,0 km/h (0 Bft)
01.08.2013 01:55 12,3 C 87 % 1023,6 hPa 0,0 l/m 0,0 km/h (0 Bft) O-SO 112 10,2 C 12,0 C 0,0 km/h (0 Bft)
01.08.2013 02:00 12,2 C 87 % 1023,8 hPa 0,0 l/m 0,0 km/h (0 Bft) O-SO 112 10,1 C 11,9 C 0,0 km/h (0 Bft)
01.08.2013 02:05 12,1 C 87 % 1023,8 hPa 0,0 l/m 0,0 km/h (0 Bft) O-SO 112 10,0 C 11,9 C 0,0 km/h (0 Bft)
01.08.2013 02:10 12,1 C 87 % 1023,8 hPa 0,0 l/m 0,0 km/h (0 Bft) O-SO 112 10,0 C 11,9 C 0,0 km/h (0 Bft)
01.08.2013 02:15 12,1 C 87 % 1023,8 hPa 0,0 l/m 0,0 km/h (0 Bft) NW 315 10,0 C 11,9 C 0,0 km/h (0 Bft)
01.08.2013 02:20 11,9 C 88 % 1023,6 hPa 0,0 l/m 0,0 km/h (0 Bft) W-NW 292 10,0 C 11,8 C 0,0 km/h (0 Bft)
01.08.2013 02:25 11,8 C 88 % 1023,6 hPa 0,0 l/m 0,0 km/h (0 Bft) NO 45 9,9 C 11,6 C 0,0 km/h (0 Bft)
01.08.2013 02:30 11,7 C 88 % 1023,6 hPa 0,0 l/m 0,0 km/h (0 Bft) W-NW 292 9,8 C 11,5 C 0,0 km/h (0 Bft)
01.08.2013 02:35 11,5 C 88 % 1023,6 hPa 0,0 l/m 0,0 km/h (0 Bft) W-SW 247 9,6 C 11,5 C 2,4 km/h (1 Bft)
01.08.2013 02:40 11,5 C 88 % 1023,4 hPa 0,0 l/m 0,2 km/h (0 Bft) SW 225 9,6 C 11,4 C 1,8 km/h (1 Bft)
01.08.2013 02:45 11,8 C 88 % 1023,4 hPa 0,0 l/m 0,3 km/h (0 Bft) W-SW 247 9,9 C 11,3 C 2,6 km/h (1 Bft)
01.08.2013 02:50 11,6 C 88 % 1023,4 hPa 0,0 l/m 0,2 km/h (0 Bft) W-SW 247 9,7 C 11,3 C 0,0 km/h (0 Bft)
01.08.2013 02:55 11,9 C 88 % 1023,4 hPa 0,0 l/m 0,0 km/h (0 Bft) W-SW 247 10,0 C 11,4 C 0,0 km/h (0 Bft)
01.08.2013 03:00 11,9 C 89 % 1023,3 hPa 0,0 l/m 0,0 km/h (0 Bft) N-NW 337 10,1 C 11,5 C 0,0 km/h (0 Bft)
01.08.2013 03:05 11,7 C 89 % 1023,3 hPa 0,0 l/m 0,0 km/h (0 Bft) NO 45 9,9 C 11,5 C 0,0 km/h (0 Bft)
01.08.2013 03:10 11,7 C 89 % 1023,3 hPa 0,0 l/m 0,0 km/h (0 Bft) NO 45 9,9 C 11,3 C 0,0 km/h (0 Bft)
01.08.2013 03:15 11,5 C 89 % 1023,3 hPa 0,0 l/m 0,0 km/h (0 Bft) W-NW 292 9,8 C 11,4 C 0,0 km/h (0 Bft)
01.08.2013 03:20 11,5 C 89 % 1023,4 hPa 0,0 l/m 0,0 km/h (0 Bft) N-NO 22 9,8 C 11,2 C 0,0 km/h (0 Bft)
01.08.2013 03:25 11,4 C 89 % 1023,4 hPa 0,0 l/m 0,0 km/h (0 Bft) N-NO 22 9,7 C 11,2 C 0,0 km/h (0 Bft)
01.08.2013 03:30 11,2 C 89 % 1023,4 hPa 0,0 l/m 0,0 km/h (0 Bft) N-NW 337 9,5 C 11,0 C 0,0 km/h (0 Bft)
01.08.2013 03:35 11,1 C 89 % 1023,4 hPa 0,0 l/m 0,0 km/h (0 Bft) NO 45 9,4 C 10,9 C 0,0 km/h (0 Bft)
01.08.2013 03:40 11,3 C 89 % 1023,2 hPa 0,0 l/m 0,0 km/h (0 Bft) NO 45 9,6 C 10,9 C 0,0 km/h (0 Bft)
01.08.2013 03:45 11,3 C 89 % 1023,2 hPa 0,0 l/m 0,0 km/h (0 Bft) NO 45 9,6 C 11,0 C 0,0 km/h (0 Bft)
01.08.2013 03:50 11,2 C 89 % 1023,2 hPa 0,0 l/m 0,0 km/h (0 Bft) N-NO 22 9,5 C 11,0 C 0,0 km/h (0 Bft)
01.08.2013 03:55 11,3 C 89 % 1023,2 hPa 0,0 l/m 0,0 km/h (0 Bft) W-NW 292 9,6 C 10,9 C 0,0 km/h (0 Bft)
01.08.2013 04:00 11,1 C 89 % 1022,9 hPa 0,0 l/m 0,0 km/h (0 Bft) W 270 9,4 C 10,9 C 0,0 km/h (0 Bft)
01.08.2013 04:05 10,9 C 89 % 1022,9 hPa 0,0 l/m 0,0 km/h (0 Bft) N 360 9,2 C 10,7 C 0,0 km/h (0 Bft)
01.08.2013 04:10 10,9 C 89 % 1022,9 hPa 0,0 l/m 0,0 km/h (0 Bft) N-NO 22 9,2 C 10,7 C 0,0 km/h (0 Bft)
01.08.2013 04:15 10,9 C 89 % 1022,9 hPa 0,0 l/m 0,0 km/h (0 Bft) N-NO 22 9,2 C 10,6 C 0,0 km/h (0 Bft)
01.08.2013 04:20 11,0 C 89 % 1022,8 hPa 0,0 l/m 0,0 km/h (0 Bft) N-NO 22 9,3 C 10,7 C 0,0 km/h (0 Bft)
01.08.2013 04:25 10,8 C 89 % 1022,8 hPa 0,0 l/m 0,0 km/h (0 Bft) W-NW 292 9,1 C 10,7 C 0,0 km/h (0 Bft)
01.08.2013 04:30 10,6 C 89 % 1022,8 hPa 0,0 l/m 0,0 km/h (0 Bft) W-NW 292 8,9 C 10,6 C 0,0 km/h (0 Bft)
01.08.2013 04:35 10,8 C 90 % 1022,8 hPa 0,0 l/m 0,0 km/h (0 Bft) N-NO 22 9,2 C 10,5 C 0,0 km/h (0 Bft)
01.08.2013 04:40 10,7 C 90 % 1022,5 hPa 0,0 l/m 0,0 km/h (0 Bft) NO 45 9,1 C 10,5 C 0,0 km/h (0 Bft)
01.08.2013 04:45 10,5 C 89 % 1022,5 hPa 0,0 l/m 0,0 km/h (0 Bft) N-NW 337 8,8 C 10,5 C 0,0 km/h (0 Bft)
01.08.2013 04:50 10,3 C 89 % 1022,5 hPa 0,0 l/m 0,0 km/h (0 Bft) N 360 8,6 C 10,3 C 0,0 km/h (0 Bft)
01.08.2013 04:55 10,4 C 89 % 1022,5 hPa 0,0 l/m 0,0 km/h (0 Bft) NO 45 8,7 C 10,3 C 0,0 km/h (0 Bft)
01.08.2013 05:00 10,2 C 89 % 1022,7 hPa 0,0 l/m 0,0 km/h (0 Bft) NW 315 8,5 C 10,2 C 0,0 km/h (0 Bft)
01.08.2013 05:05 10,1 C 89 % 1022,7 hPa 0,0 l/m 0,0 km/h (0 Bft) N-NW 337 8,4 C 10,0 C 0,0 km/h (0 Bft)
01.08.2013 05:10 10,0 C 89 % 1022,7 hPa 0,0 l/m 0,0 km/h (0 Bft) N-NW 337 8,3 C 9,9 C 0,0 km/h (0 Bft)
01.08.2013 05:15 10,0 C 89 % 1022,7 hPa 0,0 l/m 0,0 km/h (0 Bft) N-NO 22 8,3 C 9,7 C 0,0 km/h (0 Bft)
01.08.2013 05:20 9,9 C 90 % 1022,6 hPa 0,0 l/m 0,0 km/h (0 Bft) N 360 8,3 C 9,7 C 0,0 km/h (0 Bft)
01.08.2013 05:25 10,2 C 90 % 1022,6 hPa 0,0 l/m 0,0 km/h (0 Bft) N-NW 337 8,6 C 9,7 C 0,0 km/h (0 Bft)
01.08.2013 05:30 10,0 C 90 % 1022,6 hPa 0,0 l/m 0,0 km/h (0 Bft) N-NW 337 8,4 C 10,0 C 0,0 km/h (0 Bft)
01.08.2013 05:35 9,9 C 90 % 1022,6 hPa 0,0 l/m 0,0 km/h (0 Bft) N-NO 22 8,3 C 9,9 C 0,0 km/h (0 Bft)
01.08.2013 05:40 10,5 C 90 % 1022,4 hPa 0,0 l/m 0,0 km/h (0 Bft) NO 45 8,9 C 10,0 C 0,0 km/h (0 Bft)
01.08.2013 05:45 10,4 C 91 % 1022,4 hPa 0,0 l/m 0,0 km/h (0 Bft) N-NO 22 9,0 C 10,2 C 0,0 km/h (0 Bft)
01.08.2013 05:50 10,5 C 91 % 1022,4 hPa 0,0 l/m 0,0 km/h (0 Bft) NO 45 9,1 C 10,2 C 0,0 km/h (0 Bft)
01.08.2013 05:55 10,8 C 91 % 1022,4 hPa 0,0 l/m 0,2 km/h (0 Bft) N-NO 22 9,4 C 10,3 C 0,0 km/h (0 Bft)
01.08.2013 06:00 10,6 C 91 % 1022,4 hPa 0,0 l/m 0,2 km/h (0 Bft) NO 45 9,2 C 10,4 C 0,0 km/h (0 Bft)
01.08.2013 06:05 10,7 C 91 % 1022,4 hPa 0,0 l/m 0,3 km/h (0 Bft) O 90 9,3 C 10,5 C 1,8 km/h (1 Bft)
01.08.2013 06:10 10,9 C 91 % 1022,4 hPa 0,0 l/m 0,8 km/h (0 Bft) O-SO 112 9,5 C 10,5 C 2,3 km/h (1 Bft)
01.08.2013 06:15 10,7 C 91 % 1022,4 hPa 0,0 l/m 0,8 km/h (0 Bft) N 360 9,3 C 10,6 C 2,7 km/h (1 Bft)
01.08.2013 06:20 10,5 C 91 % 1022,4 hPa 0,0 l/m 0,3 km/h (0 Bft) N 360 9,1 C 10,5 C 0,0 km/h (0 Bft)
01.08.2013 06:25 10,4 C 91 % 1022,4 hPa 0,0 l/m 0,0 km/h (0 Bft) N 360 9,0 C 10,3 C 0,0 km/h (0 Bft)
01.08.2013 06:30 10,3 C 91 % 1022,4 hPa 0,0 l/m 0,0 km/h (0 Bft) N 360 8,9 C 10,3 C 0,0 km/h (0 Bft)
01.08.2013 06:35 10,6 C 91 % 1022,4 hPa 0,0 l/m 0,0 km/h (0 Bft) N 360 9,2 C 10,5 C 0,0 km/h (0 Bft)
01.08.2013 06:40 11,6 C 91 % 1022,4 hPa 0,0 l/m 0,0 km/h (0 Bft) NO 45 10,2 C 11,7 C 0,0 km/h (0 Bft)
01.08.2013 06:45 14,3 C 89 % 1022,4 hPa 0,0 l/m 0,0 km/h (0 Bft) N-NW 337 12,5 C 13,1 C 0,0 km/h (0 Bft)
01.08.2013 06:50 14,1 C 88 % 1022,4 hPa 0,0 l/m 0,2 km/h (0 Bft) NO 45 12,1 C 13,8 C 2,4 km/h (1 Bft)
01.08.2013 06:55 14,2 C 87 % 1022,4 hPa 0,0 l/m 0,6 km/h (0 Bft) O-NO 67 12,1 C 14,4 C 3,2 km/h (1 Bft)
01.08.2013 07:00 14,9 C 87 % 1022,2 hPa 0,0 l/m 0,6 km/h (0 Bft) O-NO 67 12,8 C 15,2 C 0,0 km/h (0 Bft)
01.08.2013 07:05 16,5 C 85 % 1022,2 hPa 0,0 l/m 0,5 km/h (0 Bft) O 90 14,0 C 16,4 C 2,7 km/h (1 Bft)
01.08.2013 07:10 17,1 C 82 % 1022,2 hPa 0,0 l/m 0,5 km/h (0 Bft) O-NO 67 14,0 C 17,0 C 1,8 km/h (1 Bft)
01.08.2013 07:15 17,9 C 77 % 1022,2 hPa 0,0 l/m 0,5 km/h (0 Bft) NO 45 13,8 C 18,0 C 0,0 km/h (0 Bft)
01.08.2013 07:20 18,7 C 75 % 1022,4 hPa 0,0 l/m 0,2 km/h (0 Bft) O-NO 67 14,2 C 18,9 C 0,0 km/h (0 Bft)
01.08.2013 07:25 19,3 C 70 % 1022,4 hPa 0,0 l/m 0,2 km/h (0 Bft) NO 45 13,7 C 19,5 C 0,0 km/h (0 Bft)
01.08.2013 07:30 18,9 C 69 % 1022,4 hPa 0,0 l/m 0,2 km/h (0 Bft) SO 135 13,1 C 20,0 C 0,0 km/h (0 Bft)
01.08.2013 07:35 16,9 C 71 % 1022,4 hPa 0,0 l/m 0,0 km/h (0 Bft) NO 45 11,6 C 21,0 C 0,0 km/h (0 Bft)
01.08.2013 07:40 16,9 C 73 % 1022,6 hPa 0,0 l/m 0,0 km/h (0 Bft) NO 45 12,0 C 21,5 C 0,0 km/h (0 Bft)
01.08.2013 07:45 20,7 C 69 % 1022,6 hPa 0,0 l/m 0,0 km/h (0 Bft) O-NO 67 14,8 C 22,5 C 0,0 km/h (0 Bft)
01.08.2013 07:50 21,3 C 67 % 1022,6 hPa 0,0 l/m 0,0 km/h (0 Bft) N-NO 22 14,9 C 22,9 C 1,6 km/h (1 Bft)
01.08.2013 07:55 23,1 C 63 % 1022,6 hPa 0,0 l/m 0,0 km/h (0 Bft) N-NW 337 15,7 C 23,2 C 1,6 km/h (1 Bft)
01.08.2013 08:00 24,1 C 60 % 1022,7 hPa 0,0 l/m 0,0 km/h (0 Bft) NO 45 15,8 C 23,6 C 0,0 km/h (0 Bft)
01.08.2013 08:05 24,2 C 58 % 1022,7 hPa 0,0 l/m 0,0 km/h (0 Bft) NO 45 15,4 C 24,4 C 0,0 km/h (0 Bft)
01.08.2013 08:10 24,5 C 57 % 1022,7 hPa 0,0 l/m 0,0 km/h (0 Bft) NO 45 15,4 C 24,7 C 0,0 km/h (0 Bft)
01.08.2013 08:15 24,6 C 56 % 1022,7 hPa 0,0 l/m 0,0 km/h (0 Bft) NO 45 15,2 C 25,5 C 0,0 km/h (0 Bft)
01.08.2013 08:20 25,0 C 55 % 1022,8 hPa 0,0 l/m 0,0 km/h (0 Bft) O-NO 67 15,3 C 25,9 C 0,0 km/h (0 Bft)
01.08.2013 08:25 25,1 C 54 % 1022,8 hPa 0,0 l/m 0,0 km/h (0 Bft) NO 45 15,1 C 26,7 C 0,0 km/h (0 Bft)
01.08.2013 08:30 25,4 C 55 % 1022,8 hPa 0,0 l/m 0,0 km/h (0 Bft) NO 45 15,7 C 27,1 C 0,0 km/h (0 Bft)
01.08.2013 08:35 25,8 C 53 % 1022,8 hPa 0,0 l/m 0,0 km/h (0 Bft) N-NW 337 15,5 C 27,8 C 0,0 km/h (0 Bft)
01.08.2013 08:40 26,3 C 53 % 1022,7 hPa 0,0 l/m 0,0 km/h (0 Bft) W-NW 292 15,9 C 28,0 C 0,0 km/h (0 Bft)
01.08.2013 08:45 26,8 C 50 % 1022,7 hPa 0,0 l/m 0,0 km/h (0 Bft) NO 45 15,5 C 28,5 C 0,0 km/h (0 Bft)
01.08.2013 08:50 26,6 C 50 % 1022,7 hPa 0,0 l/m 0,0 km/h (0 Bft) N 360 15,3 C 28,8 C 2,1 km/h (1 Bft)
01.08.2013 08:55 26,9 C 50 % 1022,7 hPa 0,0 l/m 0,2 km/h (0 Bft) W-NW 292 15,6 C 28,8 C 0,0 km/h (0 Bft)
01.08.2013 09:00 27,5 C 49 % 1022,9 hPa 0,0 l/m 0,3 km/h (0 Bft) N-NW 337 15,8 C 28,5 C 2,7 km/h (1 Bft)
01.08.2013 09:05 26,8 C 48 % 1022,9 hPa 0,0 l/m 0,8 km/h (0 Bft) W-NW 292 14,9 C 28,3 C 3,4 km/h (1 Bft)
01.08.2013 09:10 27,4 C 47 % 1022,9 hPa 0,0 l/m 1,4 km/h (1 Bft) W 270 15,1 C 27,9 C 1,8 km/h (1 Bft)
01.08.2013 09:15 27,3 C 47 % 1022,9 hPa 0,0 l/m 1,8 km/h (1 Bft) NW 315 15,0 C 27,6 C 1,8 km/h (1 Bft)
01.08.2013 09:20 27,2 C 45 % 1023,0 hPa 0,0 l/m 1,6 km/h (1 Bft) N-NO 22 14,2 C 27,7 C 2,7 km/h (1 Bft)
01.08.2013 09:25 27,7 C 48 % 1023,0 hPa 0,0 l/m 1,4 km/h (1 Bft) W-SW 247 15,7 C 27,8 C 5,0 km/h (1 Bft)
01.08.2013 09:30 28,7 C 47 % 1023,0 hPa 0,0 l/m 1,1 km/h (1 Bft) N 360 16,3 C 28,4 C 1,9 km/h (1 Bft)
01.08.2013 09:35 28,1 C 45 % 1023,0 hPa 0,0 l/m 0,8 km/h (0 Bft) N 360 15,0 C 28,7 C 3,7 km/h (1 Bft)
01.08.2013 09:40 27,6 C 44 % 1022,9 hPa 0,0 l/m 1,1 km/h (1 Bft) NO 45 14,2 C 28,8 C 0,0 km/h (0 Bft)
01.08.2013 09:45 28,2 C 44 % 1022,9 hPa 0,0 l/m 0,8 km/h (0 Bft) N-NO 22 14,8 C 29,1 C 2,1 km/h (1 Bft)
01.08.2013 09:50 27,5 C 46 % 1022,9 hPa 0,0 l/m 0,6 km/h (0 Bft) W 270 14,8 C 29,3 C 1,6 km/h (1 Bft)
01.08.2013 09:55 27,5 C 43 % 1022,9 hPa 0,0 l/m 0,6 km/h (0 Bft) O 90 13,8 C 29,9 C 2,1 km/h (1 Bft)
01.08.2013 10:00 27,3 C 42 % 1023,0 hPa 0,0 l/m 0,2 km/h (0 Bft) W-NW 292 13,2 C 30,4 C 0,0 km/h (0 Bft)
01.08.2013 10:05 28,1 C 43 % 1023,0 hPa 0,0 l/m 0,2 km/h (0 Bft) O-NO 67 14,3 C 30,5 C 2,6 km/h (1 Bft)
01.08.2013 10:10 28,2 C 41 % 1023,0 hPa 0,0 l/m 0,6 km/h (0 Bft) NO 45 13,7 C 30,7 C 0,0 km/h (0 Bft)
01.08.2013 10:15 28,3 C 43 % 1023,0 hPa 0,0 l/m 0,8 km/h (0 Bft) W-NW 292 14,5 C 30,8 C 3,7 km/h (1 Bft)
01.08.2013 10:20 28,3 C 42 % 1023,3 hPa 0,0 l/m 1,0 km/h (0 Bft) W-NW 292 14,1 C 30,4 C 0,0 km/h (0 Bft)
01.08.2013 10:25 28,2 C 41 % 1023,3 hPa 0,0 l/m 0,8 km/h (0 Bft) S 180 13,7 C 30,6 C 1,9 km/h (1 Bft)
01.08.2013 10:30 28,9 C 41 % 1023,3 hPa 0,0 l/m 0,6 km/h (0 Bft) W-SW 247 14,3 C 30,9 C 3,2 km/h (1 Bft)
01.08.2013 10:35 28,3 C 41 % 1023,3 hPa 0,0 l/m 1,3 km/h (1 Bft) NO 45 13,8 C 30,9 C 6,0 km/h (2 Bft)
01.08.2013 10:40 27,8 C 41 % 1023,6 hPa 0,0 l/m 1,9 km/h (1 Bft) NW 315 13,3 C 30,3 C 0,0 km/h (0 Bft)
01.08.2013 10:45 28,2 C 41 % 1023,6 hPa 0,0 l/m 2,6 km/h (1 Bft) W-SW 247 13,7 C 30,1 C 4,3 km/h (1 Bft)
01.08.2013 10:50 28,5 C 39 % 1023,6 hPa 0,0 l/m 2,7 km/h (1 Bft) W-NW 292 13,2 C 29,9 C 5,1 km/h (1 Bft)
01.08.2013 10:55 28,3 C 39 % 1023,6 hPa 0,0 l/m 2,7 km/h (1 Bft) N-NO 22 13,0 C 29,8 C 2,4 km/h (1 Bft)
01.08.2013 11:00 28,0 C 39 % 1023,6 hPa 0,0 l/m 2,7 km/h (1 Bft) W 270 12,7 C 29,9 C 4,8 km/h (1 Bft)
01.08.2013 11:05 28,8 C 38 % 1023,6 hPa 0,0 l/m 2,9 km/h (1 Bft) NW 315 13,0 C 29,7 C 4,5 km/h (1 Bft)
01.08.2013 11:10 28,6 C 41 % 1023,6 hPa 0,0 l/m 2,9 km/h (1 Bft) N-NW 337 14,0 C 29,8 C 3,4 km/h (1 Bft)
01.08.2013 11:15 29,2 C 38 % 1023,6 hPa 0,0 l/m 2,6 km/h (1 Bft) NO 45 13,4 C 29,9 C 6,8 km/h (2 Bft)
01.08.2013 11:20 28,7 C 39 % 1023,6 hPa 0,0 l/m 3,2 km/h (1 Bft) W-NW 292 13,4 C 29,8 C 8,0 km/h (2 Bft)
01.08.2013 11:25 29,1 C 38 % 1023,6 hPa 0,0 l/m 4,3 km/h (1 Bft) W 270 13,3 C 29,3 C 5,0 km/h (1 Bft)
01.08.2013 11:30 29,3 C 38 % 1023,6 hPa 0,0 l/m 4,2 km/h (1 Bft) W-SW 247 13,5 C 29,3 C 4,3 km/h (1 Bft)
01.08.2013 11:35 29,6 C 40 % 1023,6 hPa 0,0 l/m 4,2 km/h (1 Bft) W-NW 292 14,5 C 29,2 C 9,2 km/h (2 Bft)
01.08.2013 11:40 28,9 C 38 % 1023,7 hPa 0,0 l/m 5,0 km/h (1 Bft) W-SW 247 13,1 C 28,8 C 6,0 km/h (2 Bft)
01.08.2013 11:45 29,2 C 39 % 1023,7 hPa 0,0 l/m 5,0 km/h (1 Bft) NW 315 13,8 C 28,1 C 10,1 km/h (2 Bft)
01.08.2013 11:50 29,2 C 38 % 1023,7 hPa 0,0 l/m 4,7 km/h (1 Bft) N-NW 337 13,4 C 27,8 C 6,0 km/h (2 Bft)
01.08.2013 11:55 29,4 C 39 % 1023,7 hPa 0,0 l/m 4,0 km/h (1 Bft) W 270 14,0 C 28,2 C 5,5 km/h (1 Bft)
01.08.2013 12:00 29,6 C 39 % 1023,6 hPa 0,0 l/m 3,7 km/h (1 Bft) NW 315 14,2 C 28,8 C 6,1 km/h (2 Bft)
01.08.2013 12:05 30,0 C 38 % 1023,6 hPa 0,0 l/m 3,7 km/h (1 Bft) W 270 14,1 C 29,3 C 3,7 km/h (1 Bft)
01.08.2013 12:10 29,4 C 37 % 1023,6 hPa 0,0 l/m 4,2 km/h (1 Bft) N-NW 337 13,2 C 29,6 C 6,3 km/h (2 Bft)
01.08.2013 12:15 29,5 C 39 % 1023,6 hPa 0,0 l/m 4,0 km/h (1 Bft) S-SW 202 14,1 C 30,0 C 5,1 km/h (1 Bft)
01.08.2013 12:20 29,4 C 38 % 1023,7 hPa 0,0 l/m 3,7 km/h (1 Bft) W-NW 292 13,6 C 30,3 C 6,6 km/h (2 Bft)
01.08.2013 12:25 29,6 C 38 % 1023,7 hPa 0,0 l/m 4,2 km/h (1 Bft) W-NW 292 13,8 C 30,2 C 2,9 km/h (1 Bft)
01.08.2013 12:30 29,4 C 38 % 1023,7 hPa 0,0 l/m 4,7 km/h (1 Bft) N 360 13,6 C 30,4 C 5,6 km/h (1 Bft)
01.08.2013 12:35 29,5 C 40 % 1023,7 hPa 0,0 l/m 3,9 km/h (1 Bft) W-NW 292 14,5 C 30,6 C 5,6 km/h (1 Bft)
01.08.2013 12:40 29,3 C 38 % 1023,8 hPa 0,0 l/m 4,2 km/h (1 Bft) N-NW 337 13,5 C 30,7 C 7,6 km/h (2 Bft)
01.08.2013 12:45 29,3 C 38 % 1023,8 hPa 0,0 l/m 5,0 km/h (1 Bft) W-SW 247 13,5 C 30,2 C 8,2 km/h (2 Bft)
01.08.2013 12:50 29,6 C 37 % 1023,8 hPa 0,0 l/m 5,5 km/h (1 Bft) W-NW 292 13,3 C 30,1 C 6,6 km/h (2 Bft)
01.08.2013 12:55 29,5 C 38 % 1023,8 hPa 0,0 l/m 5,1 km/h (1 Bft) N-NW 337 13,7 C 30,3 C 6,6 km/h (2 Bft)
01.08.2013 13:00 29,2 C 38 % 1023,6 hPa 0,0 l/m 5,0 km/h (1 Bft) NO 45 13,4 C 30,3 C 8,7 km/h (2 Bft)
01.08.2013 13:05 29,2 C 39 % 1023,6 hPa 0,0 l/m 5,6 km/h (1 Bft) O-SO 112 13,8 C 30,2 C 7,6 km/h (2 Bft)
01.08.2013 13:10 29,0 C 38 % 1023,6 hPa 0,0 l/m 5,8 km/h (2 Bft) W 270 13,2 C 30,2 C 7,6 km/h (2 Bft)
01.08.2013 13:15 29,4 C 38 % 1023,6 hPa 0,0 l/m 5,3 km/h (1 Bft) W-NW 292 13,6 C 30,3 C 10,3 km/h (2 Bft)
01.08.2013 13:20 29,3 C 38 % 1023,3 hPa 0,0 l/m 5,5 km/h (1 Bft) N-NW 337 13,5 C 30,4 C 7,4 km/h (2 Bft)
01.08.2013 13:25 29,5 C 38 % 1023,3 hPa 0,0 l/m 4,8 km/h (1 Bft) W-NW 292 13,7 C 31,0 C 7,2 km/h (2 Bft)
01.08.2013 13:30 29,6 C 37 % 1023,3 hPa 0,0 l/m 4,2 km/h (1 Bft) N 360 13,3 C 31,2 C 7,2 km/h (2 Bft)
01.08.2013 13:35 29,4 C 37 % 1023,3 hPa 0,0 l/m 4,8 km/h (1 Bft) N-NW 337 13,2 C 31,2 C 7,9 km/h (2 Bft)
01.08.2013 13:40 29,7 C 37 % 1023,2 hPa 0,0 l/m 5,1 km/h (1 Bft) W-SW 247 13,4 C 31,2 C 9,8 km/h (2 Bft)
01.08.2013 13:45 29,5 C 37 % 1023,2 hPa 0,0 l/m 5,3 km/h (1 Bft) W-SW 247 13,3 C 31,1 C 17,4 km/h (3 Bft)
01.08.2013 13:50 29,8 C 36 % 1023,2 hPa 0,0 l/m 5,0 km/h (1 Bft) N 360 13,1 C 31,4 C 4,2 km/h (1 Bft)
01.08.2013 13:55 29,7 C 37 % 1023,2 hPa 0,0 l/m 4,8 km/h (1 Bft) W-NW 292 13,4 C 31,5 C 5,6 km/h (1 Bft)
01.08.2013 14:00 30,3 C 36 % 1023,0 hPa 0,0 l/m 5,3 km/h (1 Bft) N 360 13,5 C 31,5 C 11,4 km/h (2 Bft)
01.08.2013 14:05 30,1 C 35 % 1023,0 hPa 0,0 l/m 5,0 km/h (1 Bft) O-NO 67 12,9 C 31,5 C 4,8 km/h (1 Bft)
01.08.2013 14:10 30,2 C 33 % 1023,0 hPa 0,0 l/m 5,5 km/h (1 Bft) N-NW 337 12,1 C 31,6 C 13,2 km/h (3 Bft)
01.08.2013 14:15 30,0 C 35 % 1023,0 hPa 0,0 l/m 5,6 km/h (1 Bft) N-NO 22 12,8 C 31,5 C 6,4 km/h (2 Bft)
01.08.2013 14:20 30,3 C 34 % 1022,9 hPa 0,0 l/m 5,8 km/h (2 Bft) W-NW 292 12,7 C 31,5 C 7,7 km/h (2 Bft)
01.08.2013 14:25 30,0 C 33 % 1022,9 hPa 0,0 l/m 5,0 km/h (1 Bft) W-NW 292 11,9 C 31,9 C 8,9 km/h (2 Bft)
01.08.2013 14:30 30,6 C 33 % 1022,9 hPa 0,0 l/m 5,1 km/h (1 Bft) N-NW 337 12,5 C 32,0 C 5,5 km/h (1 Bft)
01.08.2013 14:35 30,9 C 34 % 1022,9 hPa 0,0 l/m 5,5 km/h (1 Bft) N 360 13,2 C 31,9 C 3,7 km/h (1 Bft)
01.08.2013 14:40 30,7 C 34 % 1022,9 hPa 0,0 l/m 4,8 km/h (1 Bft) NW 315 13,0 C 32,1 C 5,8 km/h (2 Bft)
01.08.2013 14:45 30,8 C 33 % 1022,9 hPa 0,0 l/m 4,3 km/h (1 Bft) W 270 12,6 C 32,3 C 5,1 km/h (1 Bft)
01.08.2013 14:50 31,1 C 34 % 1022,9 hPa 0,0 l/m 5,1 km/h (1 Bft) W 270 13,4 C 32,4 C 10,0 km/h (2 Bft)
01.08.2013 14:55 30,9 C 33 % 1022,9 hPa 0,0 l/m 5,3 km/h (1 Bft) NO 45 12,7 C 32,4 C 8,2 km/h (2 Bft)
01.08.2013 15:00 31,1 C 36 % 1022,8 hPa 0,0 l/m 5,0 km/h (1 Bft) N-NO 22 14,2 C 32,6 C 6,0 km/h (2 Bft)
01.08.2013 15:05 30,8 C 32 % 1022,8 hPa 0,0 l/m 4,7 km/h (1 Bft) W-NW 292 12,2 C 32,9 C 8,9 km/h (2 Bft)
01.08.2013 15:10 31,0 C 33 % 1022,8 hPa 0,0 l/m 5,0 km/h (1 Bft) N-NW 337 12,8 C 32,7 C 4,8 km/h (1 Bft)
01.08.2013 15:15 31,2 C 34 % 1022,8 hPa 0,0 l/m 4,8 km/h (1 Bft) NW 315 13,4 C 33,0 C 5,5 km/h (1 Bft)
01.08.2013 15:20 31,0 C 33 % 1022,6 hPa 0,0 l/m 4,5 km/h (1 Bft) W-NW 292 12,8 C 33,2 C 6,3 km/h (2 Bft)
01.08.2013 15:25 31,0 C 33 % 1022,6 hPa 0,0 l/m 4,3 km/h (1 Bft) W-NW 292 12,8 C 33,5 C 4,5 km/h (1 Bft)
01.08.2013 15:30 31,1 C 32 % 1022,6 hPa 0,0 l/m 4,0 km/h (1 Bft) N 360 12,4 C 33,5 C 3,4 km/h (1 Bft)
01.08.2013 15:35 31,0 C 33 % 1022,6 hPa 0,0 l/m 3,5 km/h (1 Bft) N 360 12,8 C 33,8 C 2,4 km/h (1 Bft)
01.08.2013 15:40 31,3 C 31 % 1022,8 hPa 0,0 l/m 3,7 km/h (1 Bft) W-NW 292 12,1 C 34,1 C 7,4 km/h (2 Bft)
01.08.2013 15:45 31,5 C 31 % 1022,8 hPa 0,0 l/m 4,8 km/h (1 Bft) W 270 12,3 C 33,7 C 8,9 km/h (2 Bft)
01.08.2013 15:50 31,4 C 31 % 1022,8 hPa 0,0 l/m 5,5 km/h (1 Bft) N-NW 337 12,2 C 33,5 C 3,4 km/h (1 Bft)
01.08.2013 15:55 31,3 C 32 % 1022,8 hPa 0,0 l/m 5,0 km/h (1 Bft) NO 45 12,6 C 33,6 C 2,1 km/h (1 Bft)
01.08.2013 16:00 31,4 C 31 % 1022,5 hPa 0,0 l/m 4,0 km/h (1 Bft) W 270 12,2 C 33,8 C 3,7 km/h (1 Bft)
01.08.2013 16:05 31,0 C 31 % 1022,5 hPa 0,0 l/m 3,9 km/h (1 Bft) N-NW 337 11,9 C 34,2 C 7,4 km/h (2 Bft)
01.08.2013 16:10 31,1 C 31 % 1022,5 hPa 0,0 l/m 4,2 km/h (1 Bft) W 270 11,9 C 34,1 C 5,6 km/h (1 Bft)
01.08.2013 16:15 31,4 C 30 % 1022,5 hPa 0,0 l/m 4,0 km/h (1 Bft) NW 315 11,7 C 34,5 C 6,4 km/h (2 Bft)
01.08.2013 16:20 31,2 C 30 % 1022,7 hPa 0,0 l/m 3,4 km/h (1 Bft) W 270 11,5 C 34,5 C 4,3 km/h (1 Bft)
01.08.2013 16:25 31,4 C 31 % 1022,7 hPa 0,0 l/m 3,2 km/h (1 Bft) N-NW 337 12,2 C 35,0 C 8,5 km/h (2 Bft)
01.08.2013 16:30 30,8 C 31 % 1022,7 hPa 0,0 l/m 3,4 km/h (1 Bft) W-NW 292 11,7 C 35,1 C 5,3 km/h (1 Bft)
01.08.2013 16:35 30,8 C 31 % 1022,7 hPa 0,0 l/m 3,5 km/h (1 Bft) W 270 11,7 C 34,8 C 2,7 km/h (1 Bft)
01.08.2013 16:40 30,1 C 31 % 1022,6 hPa 0,0 l/m 3,7 km/h (1 Bft) N-NW 337 11,1 C 34,9 C 2,3 km/h (1 Bft)
01.08.2013 16:45 29,8 C 32 % 1022,6 hPa 0,0 l/m 3,7 km/h (1 Bft) O 90 11,3 C 35,1 C 7,9 km/h (2 Bft)
01.08.2013 16:50 29,2 C 32 % 1022,6 hPa 0,0 l/m 3,2 km/h (1 Bft) W-NW 292 10,8 C 35,1 C 3,9 km/h (1 Bft)
01.08.2013 16:55 29,0 C 34 % 1022,6 hPa 0,0 l/m 3,1 km/h (1 Bft) NW 315 11,5 C 35,3 C 5,6 km/h (1 Bft)
01.08.2013 17:00 29,0 C 33 % 1022,4 hPa 0,0 l/m 3,4 km/h (1 Bft) W-NW 292 11,1 C 35,3 C 5,0 km/h (1 Bft)
01.08.2013 17:05 28,7 C 35 % 1022,4 hPa 0,0 l/m 3,5 km/h (1 Bft) W-NW 292 11,7 C 35,4 C 5,1 km/h (1 Bft)
01.08.2013 17:10 28,4 C 37 % 1022,4 hPa 0,0 l/m 2,6 km/h (1 Bft) NW 315 12,3 C 35,5 C 0,0 km/h (0 Bft)
01.08.2013 17:15 28,4 C 35 % 1022,4 hPa 0,0 l/m 2,4 km/h (1 Bft) N-NW 337 11,4 C 35,9 C 6,1 km/h (2 Bft)
01.08.2013 17:20 28,4 C 34 % 1022,5 hPa 0,0 l/m 2,6 km/h (1 Bft) N-NW 337 11,0 C 35,9 C 6,3 km/h (2 Bft)
01.08.2013 17:25 28,1 C 33 % 1022,5 hPa 0,0 l/m 3,7 km/h (1 Bft) N-NW 337 10,3 C 35,7 C 5,6 km/h (1 Bft)
01.08.2013 17:30 28,3 C 33 % 1022,5 hPa 0,0 l/m 3,4 km/h (1 Bft) SW 225 10,5 C 35,4 C 2,1 km/h (1 Bft)
01.08.2013 17:35 28,3 C 33 % 1022,5 hPa 0,0 l/m 2,9 km/h (1 Bft) W-NW 292 10,5 C 35,7 C 6,0 km/h (2 Bft)
01.08.2013 17:40 28,3 C 33 % 1022,2 hPa 0,0 l/m 2,7 km/h (1 Bft) W 270 10,5 C 35,7 C 5,1 km/h (1 Bft)
01.08.2013 17:45 28,3 C 33 % 1022,2 hPa 0,0 l/m 4,2 km/h (1 Bft) W-NW 292 10,5 C 35,3 C 8,2 km/h (2 Bft)
01.08.2013 17:50 28,2 C 33 % 1022,2 hPa 0,0 l/m 4,5 km/h (1 Bft) W 270 10,4 C 34,9 C 4,7 km/h (1 Bft)
01.08.2013 17:55 28,0 C 34 % 1022,2 hPa 0,0 l/m 3,9 km/h (1 Bft) W-SW 247 10,7 C 34,9 C 4,5 km/h (1 Bft)
01.08.2013 18:00 28,0 C 34 % 1022,1 hPa 0,0 l/m 3,7 km/h (1 Bft) W-SW 247 10,7 C 34,9 C 5,8 km/h (2 Bft)
01.08.2013 18:05 28,1 C 32 % 1022,1 hPa 0,0 l/m 4,7 km/h (1 Bft) NW 315 9,8 C 34,4 C 3,7 km/h (1 Bft)
01.08.2013 18:10 28,0 C 32 % 1022,1 hPa 0,0 l/m 5,0 km/h (1 Bft) W 270 9,7 C 34,5 C 5,0 km/h (1 Bft)
01.08.2013 18:15 27,8 C 34 % 1022,1 hPa 0,0 l/m 2,9 km/h (1 Bft) W-SW 247 10,5 C 35,0 C 3,9 km/h (1 Bft)
01.08.2013 18:20 27,6 C 35 % 1021,9 hPa 0,0 l/m 2,1 km/h (1 Bft) S-SW 202 10,7 C 35,2 C 2,3 km/h (1 Bft)
01.08.2013 18:25 27,6 C 34 % 1021,9 hPa 0,0 l/m 2,1 km/h (1 Bft) W-NW 292 10,3 C 35,7 C 4,2 km/h (1 Bft)
01.08.2013 18:30 27,5 C 34 % 1021,9 hPa 0,0 l/m 2,3 km/h (1 Bft) W-NW 292 10,2 C 35,5 C 2,6 km/h (1 Bft)
01.08.2013 18:35 27,4 C 34 % 1021,9 hPa 0,0 l/m 2,4 km/h (1 Bft) W 270 10,1 C 35,3 C 0,0 km/h (0 Bft)
01.08.2013 18:40 27,6 C 34 % 1021,6 hPa 0,0 l/m 1,9 km/h (1 Bft) W-SW 247 10,3 C 35,6 C 2,1 km/h (1 Bft)
01.08.2013 18:45 27,4 C 34 % 1021,6 hPa 0,0 l/m 1,1 km/h (1 Bft) N 360 10,1 C 35,8 C 0,0 km/h (0 Bft)
01.08.2013 18:50 27,1 C 33 % 1021,6 hPa 0,0 l/m 1,3 km/h (1 Bft) W 270 9,4 C 36,0 C 3,9 km/h (1 Bft)
01.08.2013 18:55 26,7 C 36 % 1021,6 hPa 0,0 l/m 1,0 km/h (0 Bft) N 360 10,4 C 35,9 C 0,0 km/h (0 Bft)
01.08.2013 19:00 26,9 C 34 % 1021,1 hPa 0,0 l/m 1,8 km/h (1 Bft) W-NW 292 9,7 C 35,7 C 4,5 km/h (1 Bft)
01.08.2013 19:05 26,9 C 34 % 1021,1 hPa 0,0 l/m 2,3 km/h (1 Bft) W-SW 247 9,7 C 34,9 C 0,0 km/h (0 Bft)
01.08.2013 19:10 26,6 C 35 % 1021,1 hPa 0,0 l/m 1,4 km/h (1 Bft) O-SO 112 9,9 C 35,0 C 0,0 km/h (0 Bft)
01.08.2013 19:15 26,1 C 36 % 1021,1 hPa 0,0 l/m 0,2 km/h (0 Bft) SO 135 9,8 C 35,6 C 0,0 km/h (0 Bft)
01.08.2013 19:20 25,9 C 38 % 1020,9 hPa 0,0 l/m 0,0 km/h (0 Bft) NO 45 10,5 C 36,0 C 0,0 km/h (0 Bft)
01.08.2013 19:25 25,7 C 39 % 1020,9 hPa 0,0 l/m 0,0 km/h (0 Bft) S 180 10,7 C 35,7 C 0,0 km/h (0 Bft)
01.08.2013 19:30 25,7 C 39 % 1020,9 hPa 0,0 l/m 0,2 km/h (0 Bft) O 90 10,7 C 35,6 C 1,9 km/h (1 Bft)
01.08.2013 19:35 25,8 C 41 % 1020,9 hPa 0,0 l/m 0,6 km/h (0 Bft) O-SO 112 11,5 C 35,0 C 0,0 km/h (0 Bft)
01.08.2013 19:40 25,8 C 39 % 1021,2 hPa 0,0 l/m 1,3 km/h (1 Bft) O 90 10,8 C 34,5 C 2,1 km/h (1 Bft)
01.08.2013 19:45 25,8 C 38 % 1021,2 hPa 0,0 l/m 2,1 km/h (1 Bft) O 90 10,4 C 33,4 C 3,1 km/h (1 Bft)
01.08.2013 19:50 25,7 C 40 % 1021,2 hPa 0,0 l/m 2,4 km/h (1 Bft) O 90 11,1 C 32,8 C 2,9 km/h (1 Bft)
01.08.2013 19:55 25,5 C 41 % 1021,2 hPa 0,0 l/m 3,1 km/h (1 Bft) O 90 11,3 C 31,5 C 3,2 km/h (1 Bft)
01.08.2013 20:00 25,5 C 41 % 1021,4 hPa 0,0 l/m 3,4 km/h (1 Bft) O-NO 67 11,3 C 30,9 C 3,4 km/h (1 Bft)
01.08.2013 20:05 25,2 C 43 % 1021,4 hPa 0,0 l/m 3,7 km/h (1 Bft) O 90 11,7 C 29,8 C 4,5 km/h (1 Bft)
01.08.2013 20:10 24,7 C 45 % 1021,4 hPa 0,0 l/m 3,7 km/h (1 Bft) O 90 12,0 C 29,2 C 3,4 km/h (1 Bft)
01.08.2013 20:15 24,2 C 46 % 1021,4 hPa 0,0 l/m 3,1 km/h (1 Bft) O-NO 67 11,8 C 28,4 C 3,1 km/h (1 Bft)
01.08.2013 20:20 24,1 C 45 % 1021,3 hPa 0,0 l/m 2,7 km/h (1 Bft) O-NO 67 11,4 C 27,7 C 2,9 km/h (1 Bft)
01.08.2013 20:25 23,8 C 47 % 1021,3 hPa 0,0 l/m 2,6 km/h (1 Bft) O 90 11,8 C 26,8 C 1,8 km/h (1 Bft)
01.08.2013 20:30 22,7 C 49 % 1021,3 hPa 0,0 l/m 1,6 km/h (1 Bft) O 90 11,4 C 26,4 C 0,0 km/h (0 Bft)
01.08.2013 20:35 22,4 C 49 % 1021,3 hPa 0,0 l/m 0,8 km/h (0 Bft) O-NO 67 11,2 C 25,8 C 1,8 km/h (1 Bft)
01.08.2013 20:40 22,3 C 49 % 1021,3 hPa 0,0 l/m 1,1 km/h (1 Bft) O 90 11,1 C 25,1 C 1,6 km/h (1 Bft)
01.08.2013 20:45 21,7 C 52 % 1021,3 hPa 0,0 l/m 1,3 km/h (1 Bft) O 90 11,4 C 23,5 C 1,6 km/h (1 Bft)
01.08.2013 20:50 21,3 C 52 % 1021,3 hPa 0,0 l/m 1,1 km/h (1 Bft) O 90 11,0 C 22,6 C 3,1 km/h (1 Bft)
01.08.2013 20:55 21,2 C 53 % 1021,3 hPa 0,0 l/m 1,3 km/h (1 Bft) O 90 11,2 C 21,5 C 2,4 km/h (1 Bft)
01.08.2013 21:00 20,5 C 55 % 1021,4 hPa 0,0 l/m 1,6 km/h (1 Bft) O 90 11,1 C 21,0 C 4,0 km/h (1 Bft)
01.08.2013 21:05 20,2 C 57 % 1021,4 hPa 0,0 l/m 2,9 km/h (1 Bft) O-SO 112 11,4 C 20,2 C 4,8 km/h (1 Bft)
01.08.2013 21:10 19,9 C 59 % 1021,4 hPa 0,0 l/m 4,2 km/h (1 Bft) O 90 11,6 C 19,8 C 4,7 km/h (1 Bft)
01.08.2013 21:15 19,5 C 59 % 1021,4 hPa 0,0 l/m 5,0 km/h (1 Bft) O 90 11,3 C 19,5 C 6,1 km/h (2 Bft)
01.08.2013 21:20 19,6 C 60 % 1021,4 hPa 0,0 l/m 5,3 km/h (1 Bft) O-SO 112 11,6 C 19,4 C 5,5 km/h (1 Bft)
01.08.2013 21:25 18,9 C 60 % 1021,4 hPa 0,0 l/m 3,7 km/h (1 Bft) O-NO 67 11,0 C 19,0 C 0,0 km/h (0 Bft)
01.08.2013 21:30 18,6 C 60 % 1021,4 hPa 0,0 l/m 1,8 km/h (1 Bft) O-SO 112 10,7 C 18,8 C 0,0 km/h (0 Bft)
01.08.2013 21:35 18,6 C 62 % 1021,4 hPa 0,0 l/m 0,3 km/h (0 Bft) O-SO 112 11,2 C 18,4 C 2,9 km/h (1 Bft)
01.08.2013 21:40 18,8 C 62 % 1021,6 hPa 0,0 l/m 1,0 km/h (0 Bft) O 90 11,4 C 18,5 C 2,6 km/h (1 Bft)
01.08.2013 21:45 18,3 C 62 % 1021,6 hPa 0,0 l/m 1,3 km/h (1 Bft) O-SO 112 10,9 C 18,4 C 0,0 km/h (0 Bft)
01.08.2013 21:50 18,1 C 62 % 1021,6 hPa 0,0 l/m 0,6 km/h (0 Bft) O-SO 112 10,7 C 18,1 C 0,0 km/h (0 Bft)
01.08.2013 21:55 17,8 C 63 % 1021,6 hPa 0,0 l/m 0,0 km/h (0 Bft) O 90 10,7 C 17,9 C 0,0 km/h (0 Bft)
01.08.2013 22:00 17,9 C 63 % 1021,6 hPa 0,0 l/m 0,3 km/h (0 Bft) O 90 10,8 C 17,8 C 1,8 km/h (1 Bft)
01.08.2013 22:05 17,7 C 63 % 1021,6 hPa 0,0 l/m 0,6 km/h (0 Bft) NO 45 10,6 C 17,8 C 1,6 km/h (1 Bft)
01.08.2013 22:10 17,5 C 63 % 1021,6 hPa 0,0 l/m 0,3 km/h (0 Bft) O-SO 112 10,4 C 17,7 C 0,0 km/h (0 Bft)
01.08.2013 22:15 17,6 C 63 % 1021,6 hPa 0,0 l/m 0,0 km/h (0 Bft) O-SO 112 10,5 C 17,5 C 0,0 km/h (0 Bft)
01.08.2013 22:20 17,6 C 63 % 1021,5 hPa 0,0 l/m 0,0 km/h (0 Bft) O-SO 112 10,5 C 17,5 C 0,0 km/h (0 Bft)
01.08.2013 22:25 17,2 C 63 % 1021,5 hPa 0,0 l/m 0,0 km/h (0 Bft) O-SO 112 10,1 C 17,3 C 0,0 km/h (0 Bft)
01.08.2013 22:30 17,0 C 64 % 1021,5 hPa 0,0 l/m 0,0 km/h (0 Bft) NO 45 10,1 C 17,2 C 0,0 km/h (0 Bft)
01.08.2013 22:35 16,9 C 64 % 1021,5 hPa 0,0 l/m 0,0 km/h (0 Bft) O-NO 67 10,0 C 16,9 C 0,0 km/h (0 Bft)
01.08.2013 22:40 16,8 C 65 % 1021,6 hPa 0,0 l/m 0,0 km/h (0 Bft) O-NO 67 10,2 C 16,8 C 0,0 km/h (0 Bft)
01.08.2013 22:45 16,7 C 65 % 1021,6 hPa 0,0 l/m 0,0 km/h (0 Bft) W-SW 247 10,1 C 16,8 C 0,0 km/h (0 Bft)
01.08.2013 22:50 16,5 C 65 % 1021,6 hPa 0,0 l/m 0,0 km/h (0 Bft) O 90 9,9 C 16,7 C 0,0 km/h (0 Bft)
01.08.2013 22:55 16,5 C 67 % 1021,6 hPa 0,0 l/m 0,0 km/h (0 Bft) O 90 10,4 C 16,5 C 0,0 km/h (0 Bft)
01.08.2013 23:00 16,4 C 66 % 1021,6 hPa 0,0 l/m 0,0 km/h (0 Bft) O-NO 67 10,0 C 16,5 C 0,0 km/h (0 Bft)
01.08.2013 23:05 16,3 C 66 % 1021,6 hPa 0,0 l/m 0,0 km/h (0 Bft) O 90 9,9 C 16,4 C 0,0 km/h (0 Bft)
01.08.2013 23:10 16,2 C 66 % 1021,6 hPa 0,0 l/m 0,0 km/h (0 Bft) O 90 9,8 C 16,3 C 0,0 km/h (0 Bft)
01.08.2013 23:15 16,2 C 69 % 1021,6 hPa 0,0 l/m 0,2 km/h (0 Bft) O-SO 112 10,5 C 16,3 C 0,0 km/h (0 Bft)
01.08.2013 23:20 16,0 C 68 % 1021,7 hPa 0,0 l/m 0,2 km/h (0 Bft) O 90 10,1 C 16,1 C 0,0 km/h (0 Bft)
01.08.2013 23:25 16,2 C 69 % 1021,7 hPa 0,0 l/m 0,0 km/h (0 Bft) O 90 10,5 C 15,9 C 0,0 km/h (0 Bft)
01.08.2013 23:30 16,2 C 70 % 1021,7 hPa 0,0 l/m 0,0 km/h (0 Bft) O 90 10,7 C 15,8 C 0,0 km/h (0 Bft)
01.08.2013 23:35 16,0 C 70 % 1021,7 hPa 0,0 l/m 0,0 km/h (0 Bft) O 90 10,5 C 15,8 C 0,0 km/h (0 Bft)
01.08.2013 23:40 15,7 C 72 % 1021,8 hPa 0,0 l/m 0,0 km/h (0 Bft) N-NO 22 10,7 C 15,7 C 0,0 km/h (0 Bft)
01.08.2013 23:45 16,1 C 70 % 1021,8 hPa 0,0 l/m 0,5 km/h (0 Bft) O 90 10,6 C 15,6 C 2,3 km/h (1 Bft)
01.08.2013 23:50 16,2 C 70 % 1021,8 hPa 0,0 l/m 0,6 km/h (0 Bft) O-SO 112 10,7 C 15,7 C 0,0 km/h (0 Bft)
01.08.2013 23:55 15,9 C 70 % 1021,8 hPa 0,0 l/m 0,2 km/h (0 Bft) O-SO 112 10,4 C 15,7 C 0,0 km/h (0 Bft)
_ Min-Zeit 05:35 16:20 19:35 - 23:40 - - 05:15 05:25 23:55
Minimum _ 9,9 C 30 % 1020,9 hPa - 0,0 km/h (0 Bft) - - 8,3 C 9,7 C 0,0 km/h (0 Bft)
_ Max-Zeit 15:45 06:40 00:15 23:55 14:20 - - 09:30 19:20 13:45
Maximum _ 31,5 C 91 % 1024,2 hPa 0,0 l/m 5,8 km/h
W-NW (2 Bft)
- - 16,3 C 36,0 C 17,4 km/h
W-SW (3 Bft)
Durchschnitt _ 21,6 C 58 % 1022,7 hPa #0,0 l/m 1,7 km/h (1 Bft) W-NW - 11,6 C 23,3 C 2,5 km/h (1 Bft)